Regional Weather Roundup
Issued by NWS

Home | Current Version | Previous Version | Graphics & Text | Print | Product List | Glossary On
Versions: 1 2 3 4 5 6 7 8 9 10 11 12 13 14 15 16 17 18 19 20 21 22 23 24 25 26 27 28 29 30 31 32 33 34 35 36 37 38 39 40 41 42 43 44 45 46 47 48 49 50
000
ASUS45 KABQ 180801
RWRNM
NEW MEXICO REGIONAL WEATHER ROUNDUP
NATIONAL WEATHER SERVICE ALBUQUERQUE NM
100 AM MST MON DEC 18 2017

NOTE: "FAIR" MEANS FEW OR NO CLOUDS BELOW 12,000 FEET AGL WITH NO
       SIGNIFICANT WEATHER OR OBSTRUCTIONS TO VISION.

      THIS PRODUCT IS RELEASED AS TWO VERSIONS.  ONE VERSION NEAR
      THE TOP OF THE HOUR CONTAINING PRELIMINARY DATA FROM ALBUQUERQUE
      AND OTHER STATIONS.  A FINAL VERSION WITH ADDITIONAL DATA IS
      ISSUED ABOUT 10 MINUTES AFTER THE HOUR.

NMZ501-503-504-510>518-180900-
NORTHWEST PLATEAU/NORTHCENTRAL MOUNTAINS

CITY           SKY/WX    TMP DP  RH WIND       PRES   REMARKS
FARMINGTON     FAIR      18   3  52 E7        30.12S WCI   9
LOS ALAMOS     FAIR      33  15  47 N7        30.12F WCI  27
SANTA FE       FAIR      32  29  88 CALM      30.12S
TAOS           FAIR      16   4  59 NE3       30.16R
ANGEL FIRE     FAIR       9   4  80 CALM      30.13S

$$
NMZ402-403-502-505>509-180900-
WESTCENTRAL MOUNTAINS/SOUTHWEST MOUNTAINS

CITY           SKY/WX    TMP DP  RH WIND       PRES   REMARKS
GALLUP         FAIR      18   2  49 S3        30.13R
GRANTS         FAIR      22   8  54 NW8       30.15R WCI  12
SILVER CITY    CLOUDY    35  34  94 N5        30.07F WCI  31

$$
NMZ407-409-411-412-180900-
SOUTHERN DESERTS

CITY           SKY/WX    TMP DP  RH WIND       PRES   REMARKS
DEMING         CLOUDY    42  39  89 E5        30.07S
LAS CRUCES     CLOUDY    42  42 100 NW5       30.08R
HOLLOMAN AFB   FAIR      38  31  75 N8        30.10F WCI  33
ALAMOGORDO       N/A     39  39 100 N6        30.09F WCI  35
T OR C         MOCLDY    38  35  89 N5        30.08F WCI  34

$$
NMZ519>523-180900-
CENTRAL VALLEYS/CENTRAL HIGHLANDS

CITY           SKY/WX    TMP DP  RH WIND       PRES   REMARKS
ALBUQUERQUE    FAIR      35  30  82 N7        30.13R WCI  29
MORIARTY ARPT  FAIR      18  15  90 NW3       30.14S
CLINES CORNERS NOT AVBL
BELEN          FAIR      31  30  97 S5        30.13R WCI  26
SOCORRO        MOCLDY    34  32  94 SW5       30.12F WCI  30

$$
NMZ524>526-539-540-180900-
SOUTHCENTRAL MOUNTAINS

CITY           SKY/WX    TMP DP  RH WIND       PRES   REMARKS
RUIDOSO        NOT AVBL

$$
NMZ527>531-180900-
NORTHEAST HIGHLANDS/NORTHEAST PLAINS

CITY           SKY/WX    TMP DP  RH WIND       PRES   REMARKS
LAS VEGAS      FAIR      25   8  48 S10       30.07S WCI  15
RATON          FAIR      17   9  70 N5        30.03F WCI  10
CLAYTON        FAIR      30  20  66 W14       29.98F WCI  19

$$
NMZ532>537-180900-
EASTCENTRAL PLAINS

CITY           SKY/WX    TMP DP  RH WIND       PRES   REMARKS
SANTA ROSA     FAIR      35  29  76 CALM      30.08R
TUCUMCARI      FAIR      34  22  61 S3        30.04S
CANNON AFB     CLEAR     37  23  58 CALM      30.10S
CLOVIS AIRPORT FAIR      30  22  72 W8        30.10R WCI  22

$$
NMZ028-029-538-180900-
SOUTHEAST PLAINS

CITY           SKY/WX    TMP DP  RH WIND       PRES   REMARKS
ROSWELL        LGT RAIN  43  32  65 NW8       30.08F
ARTESIA        FAIR      45  32  61 N9        30.07F
CARLSBAD       FAIR      41  35  79 W9        30.04F
HOBBS          FAIR      34  27  75 N8        30.08S WCI  27


$$



USA.gov is the U.S. government's official web portal to all federal, state and local government web resources and services.